Slide Mountain Weather observations

Data are for 10 minute period ending at time listed.
 Day   Time   Solar   Ave.   Ave.  Ave.  Vector  Max.    Baro.  
  of    of     Rad.   Air    Rel.  Wind   Wind   Wind   Press.  
Year   Day            Temp.  Hum.  Speed  Dir.   Gust           
2026   (PST)  Kw/m2    F      %     mph   deg.    mph     mb.   
-----------------------------------------------------------------
 129    0:00   0.00   44.6    44   18.1   349     21.7    717.2 
 129    0:10   0.00   44.4    46   17.2   352     20.6    717.2 
 129    0:20   0.00   44.4    47   18.2     4     21.6    717.2 
 129    0:30   0.00   44.2    49   17.7    16     20.6    717.1 
 129    0:40   0.00   44.1    50   17.8    13     21.6    717.0 
 129    0:50   0.00   43.9    51   16.4    21     17.8    717.1 
 129    1:00   0.00   43.8    53   15.0    22     17.4    717.0 
 129    1:10   0.00   43.4    55   14.5    14     16.2    717.0 
 129    1:20   0.00   43.8    52   12.2     6     15.8    717.0 
 129    1:30   0.00   43.3    56   13.7   356     16.6    717.0 
 129    1:40   0.00   43.1    57   16.0    17     17.8    717.0 
 129    1:50   0.00   42.9    57   16.0     2     19.5    717.0 
 129    2:00   0.00   42.6    58   17.6     5     19.8    717.0 
 129    2:10   0.00   42.7    54   16.9     7     18.9    717.0 
 129    2:20   0.00   42.9    49   16.7    20     18.7    717.0 
 129    2:30   0.00   43.0    46   18.6     6     21.0    717.0 
 129    2:40   0.00   43.0    46   19.3     9     22.0    716.9 
 129    2:50   0.00   42.8    45   20.0     9     24.3    716.9 
 129    3:00   0.00   42.8    44   20.4    12     25.6    716.9 
 129    3:10   0.00   42.7    42   18.1    11     21.8    716.9 
 129    3:20   0.00   42.5    42   15.5    26     18.8    716.9 
 129    3:30   0.00   42.7    43   15.1    30     17.8    717.0 
 129    3:40   0.00   42.7    45   14.7    30     18.0    717.0 
 129    3:50   0.00   42.6    44   15.8    37     19.1    717.0 
 129    4:00   0.00   42.7    45   14.7    40     20.5    717.0 
 129    4:10   0.00   42.6    47   16.7    57     20.2    717.0 
 129    4:20   0.00   42.4    48   16.7    66     19.4    717.0 
 129    4:30   0.00   42.8    47   19.7    70     22.7    717.0 
 129    4:40   0.00   42.7    46   20.2    69     24.3    717.0 
 129    4:50   0.00   42.5    46   19.6    69     22.5    717.0 
 129    5:00   0.01   42.7    43   22.7    70     26.5    716.9 
 129    5:10   0.02   43.0    44   22.5    65     26.8    717.0 
 129    5:20   0.03   42.9    44   20.8    65     25.4    717.1 
 129    5:30   0.05   43.1    42   22.6    54     26.4    717.1 
 129    5:40   0.09   43.3    40   23.6    55     26.8    717.1 
 129    5:50   0.12   43.6    39   20.4    60     23.6    717.2 
 129    6:00   0.14   43.8    40   19.7    60     23.5    717.2 
 129    6:10   0.17   44.1    39   19.7    66     23.1    717.2 
 129    6:20   0.20   44.3    38   18.7    63     23.2    717.2 
 129    6:30   0.23   44.7    37   17.4    64     21.3    717.3 
 129    6:40   0.26   44.9    38   17.4    62     24.3    717.4 
 129    6:50   0.29   45.3    38   15.4    62     20.7    717.4 
 129    7:00   0.32   45.4    39   16.1    69     20.3    717.5 
 129    7:10   0.34   45.5    39   15.4    75     23.5    717.5 
 129    7:20   0.37   45.4    39   18.0    79     25.4    717.5 
 129    7:30   0.40   45.2    37   19.0    80     26.2    717.5 
 129    7:40   0.43   45.4    39   17.8    85     25.3    717.5 
 129    7:50   0.46   45.8    38   16.0    87     22.5    717.6 
 129    8:00   0.49   45.6    41   17.8    97     22.9    717.6 
 129    8:10   0.52   45.6    43   14.5    83     22.4    717.6 
 129    8:20   0.54   45.4    42   16.0    74     21.7    717.6 
 129    8:30   0.57   45.7    40   15.0    85     24.7    717.7 
 129    8:40   0.59   45.5    39   17.0    85     25.3    717.7 
 129    8:50   0.62   45.7    35   17.9    89     24.0    717.7 
 129    9:00   0.64   46.0    34   17.0    92     27.8    717.8 
 129    9:10   0.66   46.0    35   20.3    90     26.0    717.8 
 129    9:20   0.69   45.8    37   19.0    81     26.9    717.8 
 129    9:30   0.71   48.5    38   14.4    94     25.7    717.9 
 129    9:40   0.72   47.6    37   15.1    92     23.2    718.0 
 129    9:50   0.74   47.1    37   19.2   100     26.6    718.0 
 129   10:00   0.76   47.2    37   20.5    96     28.7    718.0 
 129   10:10   0.78   47.4    32   19.5    96     28.3    718.1 
 129   10:20   0.79   47.1    35   17.5    96     29.3    718.2 
 129   10:30   0.81   48.1    32   16.7    96     25.1    718.2 
 129   10:40   0.82   47.8    32   19.2    87     26.8    718.1 
 129   10:50   0.83   48.2    33   18.6    94     24.7    718.1 
 129   11:00   0.84   48.4    32   15.8    91     23.2    718.1 
 129   11:10   0.85   49.1    32   14.0   105     25.3    718.1 
 129   11:20   0.86   50.8    31   12.8   104     18.5    718.2 
 129   11:30   0.86   50.3    31   10.7   102     20.3    718.2 
 129   11:40   0.87   50.3    31   13.5    92     19.6    718.1 
 129   11:50   0.87   50.8    30    9.2   106     19.2    718.1 
 129   12:00   0.87   50.7    30   11.0    98     18.1    718.0 
 129   12:10   0.87   51.4    30   10.1   101     16.1    718.0 
 129   12:20   0.87   51.7    29    6.0    97     14.8    718.1 
 129   12:30   0.86   51.8    29    6.0    93     13.0    718.1 
 129   12:40   0.86   52.3    28   10.5   109     15.1    718.0 
 129   12:50   0.85   51.9    29    7.6    79     16.0    718.0 
 129   13:00   0.84   53.2    27    9.1   103     19.5    718.0 
 129   13:10   0.84   51.9    28   13.2   104     21.4    717.9 
 129   13:20   0.83   53.4    28   13.2    88     23.6    718.0 
 129   13:30   0.81   52.8    26   15.2    71     25.3    718.0 
 129   13:40   0.80   53.0    26   15.7    81     25.3    718.0 
 129   13:50   0.79   53.2    27   17.0    92     24.2    718.0 
 129   14:00   0.77   53.1    26   10.9   101     18.8    718.0 
 129   14:10   0.75   53.7    22   14.8   106     21.3    717.9 
 129   14:20   0.73   53.2    21   15.3    94     20.4    717.9 
 129   14:30   0.71   53.5    21   14.7    84     27.2    717.8 
 129   14:40   0.69   53.5    20   16.5    84     23.3    717.7 
 129   14:50   0.67   54.7    23   10.9    94     22.2    717.7 
 129   15:00   0.65   55.1    22   10.6   117     20.6    717.7 
 129   15:10   0.62   56.0    21    7.5   110     11.9    717.7 
 129   15:20   0.60   56.8    20    7.4   117     11.5    717.6 
 129   15:30   0.58   56.0    20    9.9    95     16.7    717.6 
 129   15:40   0.55   54.0    22   10.6    47     17.5    717.6 
 129   15:50   0.53   54.5    22    5.5    91     11.3    717.7 
 129   16:00   0.50   54.8    22    5.3    96      8.3    717.7 
 129   16:10   0.47   54.5    22    7.3    94     19.0    717.6 
 129   16:20   0.44   53.9    22    9.9    86     15.9    717.6 
 129   16:30   0.41   54.2    22    7.1    69     12.8    717.6 
 129   16:40   0.38   54.3    21    8.4    68     12.8    717.6 
 129   16:50   0.36   54.1    22    9.2    70     12.3    717.6 
 129   17:00   0.33   53.9    21    7.2    73     10.3    717.6 
 129   17:10   0.30   54.2    21    5.3    66      9.2    717.6 
 129   17:20   0.27   54.0    20    8.9    59     12.2    717.6 
 129   17:30   0.23   53.9    20    9.1    53     12.3    717.5 
 129   17:40   0.21   54.1    20    6.5    53     10.3    717.5 
 129   17:50   0.18   54.0    20    7.8    60     11.9    717.5 
 129   18:00   0.16   53.8    20    6.2    65      8.4    717.5 
 129   18:10   0.13   53.8    20    6.6    36      9.5    717.5 
 129   18:20   0.08   53.5    20    9.5    16     11.9    717.5 
 129   18:30   0.06   53.2    20   11.1    22     13.8    717.5 
 129   18:40   0.04   53.0    19   11.6    18     15.6    717.5 
 129   18:50   0.02   52.7    18   14.0    20     17.5    717.5 
 129   19:00   0.01   52.3    18   13.1    25     16.6    717.6 
 129   19:10   0.00   52.0    19   11.2    39     13.7    717.6 
 129   19:20   0.00   51.7    20   12.4    60     20.9    717.7 
 129   19:30   0.00   51.5    20    8.9    65     10.8    717.8 
 129   19:40   0.00   51.7    20   11.0    56     13.8    717.8 
 129   19:50   0.00   51.5    20   13.3    55     16.6    717.8 
 129   20:00   0.00   51.2    20   15.2    48     17.0    717.9 
 129   20:10   0.00   51.2    19   16.3    50     18.8    717.9 
 129   20:20   0.00   51.2    18   15.8    50     18.5    718.0 
 129   20:30   0.00   51.2    18   15.6    56     18.4    718.1 
 129   20:40   0.00   51.2    18   14.5    59     16.9    718.1 
 129   20:50   0.00   51.1    18   13.2    60     15.5    718.2 
 129   21:00   0.00   51.0    18   10.7    70     12.8    718.2 
 129   21:10   0.00   50.9    18   11.6    74     13.5    718.1 
 129   21:20   0.00   50.4    19   14.4    72     18.5    718.1 
 129   21:30   0.00   50.1    19   17.0    71     20.2    718.1 
 129   21:40   0.00   50.1    20   18.2    68     20.9    718.1 
 129   21:50   0.00   50.0    20   17.1    67     22.1    718.1 
 129   22:00   0.00   50.1    20   17.5    71     22.1    718.1 
 129   22:10   0.00   50.0    20   15.7    72     18.6    718.0 
 129   22:20   0.00   50.0    20   16.1    71     18.5    718.1 
 129   22:30   0.00   49.9    20   16.0    71     18.1    718.1 
 129   22:40   0.00   49.7    20   15.8    75     18.2    718.1 
 129   22:50   0.00   49.6    20   14.2    77     17.7    718.1 
 129   23:00   0.00   49.6    20   15.1    80     17.5    718.1 
 129   23:10   0.00   49.6    20   16.0    91     18.8    718.1 
 129   23:20   0.00   49.2    20   16.6    92     22.8    718.1 
 129   23:30   0.00   49.5    20   21.0    99     27.1    718.0 
 129   23:40   0.00   49.5    19   19.4    98     26.4    718.0 

Return to Slide Mountain graphs page.


Western Regional Climate Center,wrcc@dri.edu